Location: Dercy
(49.7039°N, 3.6855°E)
Time: 15:06:28
(UTC+00:00)

Daily predictions for brighter satellites

Satellite Brightness Start Highest point End
(mag) Time Altitude Azimuth Time Altitude Azimuth Time Altitude Azimuth
CENTAUR R/B 4.1 20:37:12 10° ESE 20:39:06 12° E 20:41:07 10° E
Cosmos 1862 Rocket 3.7 20:36:34 10° S 20:41:00 83° WNW 20:45:30 10° N
Cosmos 1703 Rocket 4.3 20:37:18 10° SSE 20:41:20 35° E 20:45:23 10° NNE
Cosmos 1356 Rocket 4.3 20:37:16 10° SSW 20:41:24 55° WNW 20:45:31 10° N
Okean O Rocket 3.7 20:40:42 10° SSW 20:44:16 24° W 20:47:51 10° NW
USA 245 4.0 20:41:31 10° SSE 20:45:58 86° ENE 20:51:31 10° NNW
Cosmos 2208 Rocket 4.1 20:41:03 10° NNW 20:46:14 67° ENE 20:51:22 10° SSE
Cosmos 371 Rocket 4.4 20:43:58 10° SSE 20:47:57 26° E 20:51:56 10° NE
Ariane Rocket 3.1 20:45:10 10° SSE 20:50:13 71° ENE 20:55:18 10° N
Cosmos 1242 Rocket 2.4 20:47:54 10° SSE 20:50:26 38° E 20:52:59 10° NNE
CZ-4C R/B 2.4 20:46:24 10° S 20:50:30 37° ESE 20:55:33 10° NE
Cosmos 2228 Rocket 4.1 20:46:20 10° SSW 20:50:47 52° WNW 20:55:16 10° N
Meteor 1-4 Rocket 2.5 20:48:23 10° SSW 20:51:22 65° WNW 20:54:23 10° N
Terra 1.9 20:50:43 10° SSE 20:55:26 87° WSW 21:00:11 10° NNW
Iridium 51 4.3 20:56:20 10° S 21:00:31 76° E 21:04:29 10° N
MOS 1 Rocket 3.6 20:55:33 10° SSE 21:00:51 88° ENE 21:05:57 10° NNW
Cosmos 2360 Rocket 4.3 20:58:21 10° NW 21:02:30 21° W 21:06:38 10° SSW
Cosmos 1953 2.3 21:01:26 10° NNW 21:05:16 77° W 21:09:03 10° S
USA 234 3.9 21:01:21 10° ENE 21:07:01 30° SE 21:12:38 10° S
COSMOS 2428 2.9 21:01:31 10° NNW 21:07:12 71° WSW 21:12:52 10° SSE
SPOT 5 4.1 21:07:08 10° SSW 21:11:07 33° W 21:15:17 10° NNW
Cosmos 304 Rocket 4.4 21:10:05 10° S 21:14:25 37° ESE 21:18:47 10° NE
BREEZE-M DEB (TANK) 2.8 21:13:37 10° W 21:16:06 86° S 21:21:51 10° E
USA 281 4.4 21:10:38 10° ESE 21:16:23 34° NE 21:22:09 10° NNW
BlueWalker 3 2.6 21:18:37 10° W 21:22:19 58° NNW 21:26:02 10° ENE
ERS-1 Rocket 4.0 21:22:38 10° SSW 21:27:22 41° W 21:32:07 10° NNW
Cosmos 1315 Rocket 3.9 21:24:16 10° SSW 21:28:06 44° WNW 21:31:57 10° N
SL-4 R/B 3.5 21:26:48 10° W 21:29:51 22° SW 21:32:19 13° S
Cosmos 2084 Rocket 3.4 21:29:58 10° SSW 21:34:12 63° SE 21:38:18 10° NE
Cosmos 773 Rocket 4.0 21:29:33 10° NNW 21:34:45 86° ENE 21:39:00 16° SSE
Cosmos 1408 2.3 21:32:50 17° SSE 21:34:53 51° E 21:37:49 10° NNE
Cosmos 1908 Rocket 4.4 21:31:09 10° NNW 21:35:18 46° W 21:39:25 10° SSW
BREEZE-M DEB (TANK) 4.2 21:34:14 10° W 21:38:53 88° S 21:59:40 10° E
Cosmos 1782 Rocket 3.6 21:35:08 10° NNW 21:39:29 79° W 21:43:07 14° S
Cosmos 2242 Rocket 3.9 21:35:53 15° SSE 21:39:33 52° E 21:44:01 10° NNE
BREEZE-M DEB (TANK) 4.0 21:39:14 10° WSW 21:40:58 18° SSW 21:41:57 16° S
Cosmos 1300 Rocket 3.5 21:38:47 10° N 21:43:08 86° W 21:46:34 16° S
Cosmos 1709 Rocket 4.2 21:38:03 13° SSE 21:43:37 57° E 21:49:46 10° NNE
SL-16 R/B 3.2 21:39:30 10° NNW 21:44:50 38° NE 21:50:00 11° ESE
Cosmos 2237 Rocket 2.2 21:40:09 10° NNW 21:45:51 84° WSW 21:50:16 17° SSE
NOSS 3-2 (A) 4.4 21:48:36 17° SE 21:50:57 23° ESE 21:55:24 10° ENE
Cosmos 2227 Rocket 2.8 21:47:45 15° S 21:51:57 39° ESE 21:57:11 10° NE
SJ 16-02 4.3 21:55:16 10° W 21:58:00 16° NW 22:00:46 10° N
Cosmos 1455 4.3 21:56:17 10° NW 21:58:50 19° W 22:01:23 10° SW
H-2A R/B 3.8 21:56:06 15° ESE 21:58:58 30° ENE 22:02:37 10° N
Cosmos 1980 3.9 21:54:54 10° NW 22:00:30 63° WSW 22:04:42 18° S
EXPRESS MD2 2.5 21:59:11 10° W 22:01:24 35° SSW 22:01:35 34° S
GP-B 3.2 21:58:51 10° N 22:03:17 74° W 22:06:49 16° S
Landsat 5 3.8 21:59:37 10° N 22:03:44 65° WNW 22:07:58 10° SSW
Meteor 2-5 Rocket 3.9 21:59:20 16° S 22:03:55 61° E 22:09:36 10° NNE
Cosmos 1378 Rocket 4.4 22:02:31 20° SE 22:04:53 35° E 22:08:54 10° NNE
Cosmos 1777 Rocket 4.0 22:01:00 11° SSW 22:06:00 73° ESE 22:11:17 10° NNE
ARIANE 5 R/B 2.7 22:03:45 21° SSE 22:06:34 64° ENE 22:10:56 10° N
SeaSat 1 3.4 22:04:02 15° S 22:07:40 37° WSW 22:12:14 10° NW
Cosmos 1825 3.5 22:06:41 19° ESE 22:07:47 22° E 22:10:30 10° NE
COSMOS 2455 3.3 22:02:11 10° SW 22:08:10 64° NW 22:14:12 10° NNE
Cosmos 1674 Rocket 4.5 22:07:23 20° SE 22:09:32 32° E 22:13:24 10° NNE
Cosmos 2297 Rocket 2.2 22:05:03 10° SSW 22:10:41 88° WNW 22:16:24 10° NNE
Cosmos 1703 3.0 22:10:39 21° S 22:13:02 89° E 22:16:44 10° N
Cosmos 1503 Rocket 4.1 22:12:22 10° SSW 22:17:42 80° WNW 22:23:00 10° NNE
Cosmos 1538 Rocket 4.4 22:14:04 10° NNW 22:19:13 57° ENE 22:22:52 19° SE
SL-23 DEB 4.4 22:22:30 10° SW 22:26:31 61° SSE 22:33:24 10° ENE
Cosmos 1461 3.9 22:26:32 23° SE 22:27:04 24° ESE 22:30:14 10° ENE
Cosmos 2219 3.7 22:23:58 22° SSE 22:27:05 40° ESE 22:32:18 10° NE
CENTAUR R/B 2.5 22:22:27 11° SSW 22:27:55 63° SE 22:34:54 10° NE
Cosmos 371 Rocket 4.3 22:23:23 10° SW 22:28:01 46° WNW 22:32:42 10° NNE
Cosmos 1818 4.0 22:22:59 10° NW 22:28:28 62° NE 22:32:53 16° SE
Cosmos 2263 Rocket 3.1 22:27:07 21° SSE 22:29:39 31° ESE 22:34:29 10° NE
Cosmos 2151 Rocket 3.5 22:26:59 10° N 22:31:24 78° E 22:33:47 26° SSE
Cosmos 1892 2.8 22:31:14 31° SSE 22:32:32 49° E 22:35:59 10° NNE
Terra 4.3 22:31:53 10° WSW 22:33:44 12° W 22:35:36 10° WNW
Okean 2 Rocket 3.1 22:31:19 10° N 22:35:50 79° E 22:38:18 27° SSE
Meteor 1-24 Rocket 3.8 22:32:42 16° SSW 22:37:19 77° WNW 22:42:49 10° N
Cosmos 1263 4.5 22:35:35 10° N 22:38:38 53° ENE 22:39:31 36° SE
CZ-4C R/B 3.2 22:34:07 10° WSW 22:38:44 46° NW 22:44:35 10° NE
ALOS 2 2.9 22:46:36 26° SE 22:48:58 61° ENE 22:53:19 10° N
Cosmos 405 Rocket 3.6 22:46:38 10° NNW 22:50:10 38° W 22:51:59 23° SSW
Cosmos 1898 Rocket 4.3 22:48:08 24° SSE 22:50:21 34° ESE 22:54:59 10° NE
USA 234 3.2 22:44:01 10° ENE 22:50:36 85° SSE 22:57:10 10° WSW
Cosmos 292 Rocket 4.2 22:49:43 27° SSE 22:51:52 44° ESE 22:56:27 10° NE
H-2A R/B 3.8 22:52:49 10° NE 22:55:43 18° E 22:57:02 16° ESE
PSLV R/B 4.0 22:52:02 10° N 22:56:00 70° WNW 22:58:16 24° SSW
USA 281 3.3 22:56:14 23° SSE 23:00:30 68° WSW 23:07:06 10° NNW
BlueWalker 3 2.8 22:57:11 10° WNW 23:00:51 50° N 23:04:30 10° E
MINOTAUR 4 R/B 4.1 22:58:15 10° N 23:01:05 52° WNW 23:02:07 32° SW
Cosmos 2074 Rocket 4.0 22:58:51 24° S 23:02:49 77° E 23:09:03 10° NNE
Cosmos 2181 Rocket 4.2 22:59:15 10° NNW 23:05:18 61° W 23:09:14 22° SSW
Aureole 1 Rocket 3.3 23:05:07 32° S 23:06:55 58° ESE 23:12:00 10° NNE
Cosmos 990 Rocket 3.9 23:04:48 21° SSW 23:08:17 85° WNW 23:13:28 10° NNE
TIMED 4.5 23:08:03 31° S 23:10:01 68° ESE 23:14:20 10° NNE
Cosmos 2221 Rocket 3.7 23:07:37 25° SSW 23:10:06 70° W 23:14:32 10° N
Cosmos 1328 3.7 23:09:17 35° S 23:10:48 77° E 23:14:42 10° NNE
Okean 1 Rocket 3.1 23:07:40 10° NNW 23:12:02 70° W 23:14:06 31° S
Sich 1 Rocket 4.3 23:10:53 10° NNW 23:15:02 43° W 23:17:10 24° SSW
Cosmos 1295 Rocket 4.4 23:12:40 25° S 23:16:28 84° E 23:22:41 10° N
Meteor 1-21 Rocket 4.3 23:21:20 27° S 23:24:29 67° E 23:30:04 10° NNE
Cosmos 1680 Rocket 3.7 23:19:46 10° NNW 23:24:58 66° ENE 23:28:15 23° SE
Cosmos 1025 Rocket 2.9 23:23:54 33° S 23:25:49 82° E 23:30:07 10° NNE
Cosmos 2237 Rocket 4.3 23:25:58 10° WNW 23:29:00 15° W 23:32:00 10° SW
SL-16 R/B 2.8 23:23:39 10° NW 23:29:02 45° WSW 23:31:50 26° SSW
Cosmos 372 Rocket 4.1 23:26:39 29° S 23:29:15 61° ESE 23:34:23 10° NNE
Cosmos 2112 Rocket 4.3 23:26:09 10° NNW 23:31:20 64° ENE 23:34:41 22° SE
Cosmos 1975 Rocket 3.5 23:31:37 30° SSE 23:33:26 52° E 23:37:46 10° NNE
H-2A R/B 3.7 23:32:04 23° SW 23:33:50 32° W 23:37:36 10° NNW
Cosmos 1606 3.7 23:30:52 10° N 23:34:12 35° ENE 23:35:43 24° ESE
Cosmos 1943 3.3 23:28:59 10° NNW 23:34:39 76° ENE 23:38:26 21° SE
Cosmos 1603 4.4 23:29:08 10° NNW 23:34:46 53° NE 23:39:41 13° SE
Cosmos 2227 Rocket 3.3 23:30:35 10° WSW 23:35:58 43° NW 23:41:22 10° NNE
Cosmos 2082 3.6 23:36:07 23° SSW 23:39:47 89° WNW 23:45:26 10° NNE
Nadezhda 3 Rocket 4.1 23:33:36 10° NNW 23:39:48 70° W 23:43:26 26° S
Cosmos 1455 Rocket 3.0 23:35:44 10° NNW 23:40:13 83° W 23:42:11 33° S
NOSS 3-2 (A) 3.4 23:35:54 12° SW 23:40:54 75° NW 23:47:19 10° NE
Cosmos 1825 3.6 23:40:07 17° WSW 23:41:50 26° WNW 23:44:46 10° NNW
BREEZE-M DEB (TANK) 3.4 23:41:14 10° W 23:44:02 86° S 23:51:05 10° E
Meteor 2-1 Rocket 4.4 23:40:10 10° N 23:46:03 75° ENE 23:49:33 25° SSE
NOSS 3-2 (C) 3.2 23:49:29 25° SSW 23:52:40 71° SE 23:58:56 10° NE
Cosmos 2228 4.0 23:49:24 10° N 23:53:28 40° ENE 23:55:54 21° SE
Cosmos 2297 Rocket 4.4 23:51:13 10° W 23:55:33 22° NW 23:59:55 10° N
